DECAYED

STARLINK-1758, 46380 (Decayed)

Orbit data source: Space-Track

STARLINK-1758, 46380 was a payload satellite owned by SpaceX/Seattle (US) in LEO that was launched on Thu, 03 Sep 2020 UTC via an FALCON 9 launch vehicle from the Air Force Eastern Test Range (AFETR). Payload-class satellites include a variety of spacecraft equipped with specific instruments for various scientific and technological missions. These include communications satellites like Starlink; space stations such as the ISS; scientific satellites like the Hubble; Earth observation satellites from companies like Planet Labs, Umbra, and HawkEye 360; GPS; miniature CubeSats for education and research; and military/defense satellites.

Not visible in the next 10 days
Identifier
46380, 2020-062BH
Orbit
Decayed
Country
Flag of USUS
Related business
Manufacturer
SpaceX/Seattle
Mission
Decayed Commercial Communications
Bus & Motor
STARLINK, Unknown motor
Mass
260 kg wet, ~248 kg dry
Launch date (UTC)
2020-09-03 (5 years ago)
Launch vehicle
FALCON 9
Launch site
Air Force Eastern Test Range (AFETR)
Object type
Payload
Rocket body
Debris
Shape & HBR
Box + 1 Pan, 10.1 m
Radar Cross Section
13.562 m², Large (>1 m²)

Expand to show TLE details & history
Last TLE update: 9 months ago

TLE from 9 months ago
0 STARLINK-1758
1 46380U 20062BH  25040.19632003  .14543052  12367-4  78620-3 0  9999
2 46380  53.0256 288.2590 0007011 242.1654 258.7048 16.42175163245787
Epoch: 2025-02-09T04:42Z
TLE epoch observation values (Epoch: 2025-02-09T04:42:42.050Z)
Latitude
30.43229°
Longitude
-128.03552°
Altitude
162.68 km
Speed
7.812 km/s
True Right ascension
05h 28m 41s
True Declination
30° 16' 07"
Sunlit
Object was in full shadow at epoch
Visualization orbit readout
Latitude
Unknown
Longitude
Unknown
Altitude
Unknown
Speed
Unknown
Apparent Right ascension
Unknown
Apparent Declination
Unknown
Sunlit
N/A
Visualization observer readout
Local Sidereal Time
13:51:09
Azimuth
Unknown
Elevation
Unknown
Doppler factor
Unknown
Orbital elements
Apogee altitude
164.898 km
Perigee altitude
155.73 km
Semi-major axis
6,538.451 km
Eccentricity
0.0007
Inclination
53.0256°
RAAN
288.259°
Arg. of periapsis
242.1654°
True anomaly
258.62603°
Mean anomaly
258.7048°
Eccentric anomaly
258.66541°
Mean motion
4.10517 °/min
Orbital period
87.69 mins
BSTAR
0.0007862
Loading maneuver chart data...
Computing Atmospheric mass density...

Documentation

Showing up to 5 results
|